Regional Weather Roundup
Issued by NWS

Home | Current Version | Previous Version | Graphics & Text | Print | Product List | Glossary Off
Versions: 1 2 3 4 5 6 7 8 9 10 11 12 13 14 15 16 17 18 19 20 21 22 23 24 25 26 27 28 29 30 31 32 33 34 35 36 37 38 39 40 41 42 43 44 45 46 47 48 49 50

000
ASUS43 KTOP 041108
RWRKS

WEATHER ROUNDUP FOR KANSAS
NATIONAL WEATHER SERVICE GOODLAND KS
600 AM CDT TUE AUG 04 2015

NOTE:  "FAIR" INDICATES FEW OR NO CLOUDS BELOW 12,000 FEET WITH NO
SIGNIFICANT WEATHER AND/OR OBSTRUCTIONS TO VISIBILITY.

KSZ001>006-013>018-027>032-041>047-041200-
NORTHWEST KANSAS

CITY           SKY/WX    TMP DP  RH WIND       PRES   REMARKS
GOODLAND       MOCLDY    67  61  81 SW8       29.96S
HAYS           PTCLDY    70  61  73 CALM      29.92R
HILL CITY      PTCLDY    71  65  81 S5        29.91S
RUSSELL        PTCLDY    71  68  90 S9        29.90S
$$

KSZ061>065-074>080-084>089-041200-
SOUTHWEST KANSAS

CITY           SKY/WX    TMP DP  RH WIND       PRES   REMARKS
DODGE CITY     CLOUDY    70  66  87 S10       29.94F
ELKHART          N/A     65  58  78 S9          N/A
GARDEN CITY    CLOUDY    69  64  84 SW7       29.94R
GREAT BEND     PTCLDY    73  66  78 S10       29.92S
LIBERAL        CLOUDY    70  63  78 S12       29.94F
PRATT          CLOUDY    72  64  78 SW13      29.95S
$$

KSZ066>073-081>083-090>101-041200-
SOUTHEAST KANSAS

CITY           SKY/WX    TMP DP  RH WIND       PRES   REMARKS
CHANUTE        MOCLDY    68  67  96 E3        29.95R
COFFEYVILLE    MOCLDY    69  67  93 CALM      29.93R
HUTCHINSON     MOCLDY    73  68  84 S6        29.93S
MEDICINE LODGE   N/A     73  67  81 SW13G22   29.95R
NEWTON         CLOUDY    72  63  73 S7        29.95F
PARSONS        MOCLDY    68  67  96 CALM      29.95R
WICHITA INTL   CLOUDY    74  68  81 SW3       29.94R
WICHITA JABRA  CLOUDY    77  66  68 S9        29.93R
WICHITA MCCONL CLOUDY    75  66  72 S7        29.94R
$$

KSZ007>012-019>026-033>040-048>060-102>105-041200-
NORTHEAST KANSAS

CITY           SKY/WX    TMP DP  RH WIND       PRES   REMARKS
CONCORDIA      FOG       70  70 100 CALM      29.92R VSB 1/2
EMPORIA        CLOUDY    70  66  87 S8        29.93R
LAWRENCE       MOCLDY    71  69  93 E3        29.95R
MANHATTAN      CLOUDY    71  70  96 CALM      29.92R
MARYSVILLE     MOCLDY    70  68  94 SE8       29.94R
OLATHE IND     MOCLDY    72  70  93 SE7       29.97R
OLATHE EXE     MOCLDY    71  68  90 E5        29.96R
SALINA         CLOUDY    74  67  78 S8        29.91R
TOPEKA BILLARD CLOUDY    73  71  93 E3        29.94R
TOPEKA FORBES  CLOUDY    73  68  84 SE5       29.95R
$$



USA.gov is the U.S. government's official web portal to all federal, state and local government web resources and services.